Overview Statistics Trail Chart Weather Telemetry Raw packets
 

This is the latest recevied weather packets stored in our database for station/object WX4SGA. If no packets are shown the sender has not sent any weather packets the latest 10 day(s).

<< 78 79 80 81 82 83 84 >>
Time Temp. Humidity Pressure Rain* Wind** Luminosity Snow
1788049527 25.56° C 99% 1019 hPa 0 mm - 0 W/m² -
1788049223 25.56° C 98% 1018.6 hPa 0 mm - 0 W/m² -
1788048917 25.56° C 98% 1019 hPa 0 mm - 0 W/m² -
1788048614 25.56° C 98% 1019 hPa 0 mm - 0 W/m² -
1788048310 25.56° C 98% 1018.6 hPa 0 mm - 1 W/m² -
1788048010 25.56° C 98% 1018.6 hPa 0 mm - 2 W/m² -
1788047702 26.11° C 98% 1018.3 hPa 0 mm - 4 W/m² -
1788047401 26.11° C 97% 1018.3 hPa 0 mm - 7 W/m² -
1788047097 26.67° C 96% 1018.3 hPa 0 mm - 10 W/m² -
1788046796 26.67° C 94% 1018 hPa 0 mm - 13 W/m² -
1788046495 26.67° C 93% 1018.3 hPa 0 mm - 17 W/m² -
1788046191 26.67° C 94% 1018.3 hPa 0 mm - 20 W/m² -
1788045884 27.22° C 93% 1018 hPa 0 mm - 24 W/m² -
1788045579 27.22° C 92% 1018 hPa 0 mm - 26 W/m² -
1788045274 27.22° C 90% 1018 hPa 0 mm - 30 W/m² -
1788044970 27.78° C 90% 1018 hPa 0 mm - 33 W/m² -
1788044668 27.78° C 91% 1018 hPa 0 mm - 37 W/m² -
1788044368 27.78° C 89% 1018.3 hPa 0 mm - 41 W/m² -
1788044064 27.78° C 88% 1018.3 hPa 0 mm - 43 W/m² -
1788043760 27.78° C 88% 1018.3 hPa 0 mm - 48 W/m² -
1788043459 27.78° C 88% 1018 hPa 0 mm - 52 W/m² -
1788043154 27.78° C 88% 1018 hPa 0 mm - 65 W/m² -
1788042849 27.78° C 87% 1018 hPa 0 mm - 84 W/m² -
1788042548 27.78° C 87% 1018.3 hPa 0 mm - 100 W/m² -
1788042243 27.78° C 88% 1018.3 hPa 0 mm - 106 W/m² -

* Rain latest hour (hover to see other rain measurements)
** Current wind speed in m/s (hover to see current wind gust speed)